Location: Gimli
(50.6330°N, 97.0000°W)
Time: 11:22:01
(UTC-06:00)

ISS - Visible Passes

Search period start: 02 December 2020 00:00
Search period end: 12 December 2020 00:00
Orbit: 418 x 420 km, 51.6° (Epoch: 02 December)

Date Brightness Start Highest point End Pass type
(mag) Time Alt. Az. Time Alt. Az. Time Alt. Az.
02 Dec -3.8 17:25:57 10° W 17:29:20 73° N 17:32:13 13° E visible
02 Dec -2.4 19:02:49 10° WNW 19:05:11 39° W 19:05:11 39° W visible
03 Dec -3.7 18:15:13 10° WNW 18:18:35 73° SSW 18:19:41 39° ESE visible
03 Dec -0.2 19:52:27 10° W 19:52:40 11° W 19:52:40 11° W visible
04 Dec -3.8 17:27:38 10° WNW 17:31:01 90° S 17:34:18 11° ESE visible
04 Dec -1.9 19:04:37 10° W 19:07:17 28° SW 19:07:17 28° SW visible
05 Dec -2.6 18:16:55 10° W 18:20:07 41° SSW 18:22:02 20° SSE visible
06 Dec -3.1 17:29:16 10° WNW 17:32:35 56° SSW 17:35:53 10° SE visible
06 Dec -0.9 19:06:58 10° WSW 19:08:50 14° SW 19:09:59 12° SSW visible
07 Dec -1.2 18:18:50 10° W 18:21:26 21° SW 18:24:00 10° SSE visible
08 Dec -1.7 17:30:59 10° W 17:33:58 29° SSW 17:36:55 10° SSE visible
10 Dec -0.5 17:33:15 10° WSW 17:35:07 14° SW 17:37:00 10° S visible
